Погода в Курдюковской

Россия / Чеченская Республика     43°41′27″N   46°26′53″E
темп.,
°C
ветер,
м/с
пор.,
м/с
влажн.,
%
обл.,
%
осадки,
мм/ч
давл.,
гПа
погр.,
м
28 сентября, вт
вт2800:00+15сз2557100 0.0 1017208
03:00+14ссз2359100 0.0 1017114
06:00+13с235995 0.0 101781
09:00+16с224980 0.0 1018565
12:00+18ссз3342100 0.0 10181139
15:00+19ссз333981 0.0 10181521
18:00+17с3445100 0.0 102082
21:00+14ссз4669100 0.2 1022265
29 сентября, ср
ср2900:00+15сз1269100 0.3 102172
03:00+14с2370100 0.3 1022118
06:00+14св2570100 0.0 1022197
09:00+14св2563100 0.0 1023347
12:00+16всв3449100 0.0 10231129
15:00+16всв2452100 0.0 1022176
18:00+14всв4757100 0.0 1024398
21:00+14св3760100 0.0 1024299
30 сентября, чт
чт3000:00+13св4761100 0.0 1024338
03:00+12св3775100 0.6 1025442
06:00+11св2581100 0.6 1026305
09:00+11зюз1172100 0.8 1027143
12:00+11ю2279100 0.1 1027161
15:00+11в2380100 0.2 1027301
18:00+11в2586100 0.1 1028225
21:00+11всв2574100 0.1 1028197
1 октября, пт
пт100:00+11всв3878100 0.0 1028298
03:00+12всв51068100 0.0 1027476
06:00+12в51267100 0.1 1027603
09:00+13в71167100 0.1 1028918
12:00+13в71166100 0.1 10271090
15:00+13в61164100 0.3 10271031
18:00+13в81264100 0.1 1027812
21:00+12в71273100 0.6 1028762
2 октября, сб
сб200:00+12в71374100 1.2 1028674
03:00+13всв61263100 1.3 1027442
06:00+13всв61257100 0.0 1027436
09:00+14в71257100 0.0 1027709
12:00+18вюв9104898 0.0 10271619
15:00+17в81048100 0.0 10271474
18:00+15в61056100 0.0 1027753
21:00+14в7117899 0.1 1027725